{"data":{"norad_id":62254,"epoch":"2026-09-22T21:18:53.467776Z","epoch_age_seconds":103858,"freshness":"FRESH","line1":"1 62254U 24232T   26265.88811884  .00000096  00000+0  12903-3 0  9991","line2":"2 62254  89.0169  12.7144 0016141  94.2419 266.0577 13.51028197106271","mean_motion":13.51028197,"eccentricity":0.0016141,"inclination_deg":89.0169,"raan_deg":12.7144,"arg_perigee_deg":94.2419,"mean_anomaly_deg":266.0577,"bstar":0.00012903,"rev_number":10627,"period_min":106.58548823759,"perigee_km":1056.4583911527,"apogee_km":1080.4975536066,"semimajor_km":7446.6149723796,"source":"CELESTRAK","updated_at":"2026-09-23T09:00:21.337574Z"}}